Location: Unspecified
(48.2082°N, 0.0000°E)
Time: 06:42:09
(UTC+00:00)

S-56A Canister/Altair - Pass Details

Date: 23 June 2019
Orbit: 632 x 2500 km, 38.9° (Epoch: 17 July)

Event Time Altitude Azimuth Distance (km) Brightness Sun altitude
Rises 19:11:01 0° 266° (W) 4,184 12.4 6.6°
Reaches altitude 10° 19:14:40 10° 256° (WSW) 2,903 11.3 6.1°
Maximum altitude 19:20:10 28° 200° (SSW) 1,552 9.1 5.3°
Drops below altitude 10° 19:24:25 10° 142° (SE) 2,202 9.3 4.7°
Sets 19:26:49 0° 129° (SE) 3,009 9.9 4.4°
